Pecos, TX

9:56 AM CDT on July 22, 2017 (GMT -0500)
Pecos Municipal

Weather History for KPEQ - November, 2012

Change the Weather History Date:

Wednesday, November 28, 2012

  Actual Average Record
Temperature  
Mean Temperature 51 °F -  
Max Temperature 74 °F 62 °F 91 °F (1949)
Min Temperature 28 °F 30 °F 17 °F (1976)
Degree Days  
Heating Degree Days 14    
Growing Degree Days 1 (Base 50)    
Moisture  
Dew Point 28 °F    
Average Humidity 51    
Maximum Humidity 69    
Minimum Humidity 24    
Precipitation  
Precipitation 0.00 in - - ()
Sea Level Pressure  
Sea Level Pressure 30.25 in    
Wind  
Wind Speed 5 mph (ENE)    
Max Wind Speed 14 mph    
Max Gust Speed -    
Visibility 10 miles    
Events      
Averages and records for this station are not official NWS values.
T = Trace of Precipitation, MM = Missing Value Source: NWS Daily Summary

Daily Weather History Graph

Daily Weather History Graph

Search for Another Location

Airport or City:

Trip Planner

Search our weather history database for the weather conditions in past years. The results will help you decide how hot, cold, wet, or windy it might be!

Date:

Astronomy

Nov. 28, 2012 Rise Set
Actual Time 7:33 AM CST 5:51 PM CST
Civil Twilight 7:06 AM CST 6:17 PM CST
Nautical Twilight 6:37 AM CST 6:47 PM CST
Astronomical Twilight 6:07 AM CST 7:16 PM CST
Moon 6:08 PM CST (11/28) 7:32 AM CST (11/28)
Length of Visible Light 11h 10m
Length of Day
10h 17m
Full, 100% of the Moon is Illuminated
Nov 28
Full
Dec 6
Last Quarter
Dec 13
New
Dec 19
First Quarter
Dec 28
Full

Hourly Weather History & Observations

Time (CST) Temp. Windchill Dew Point Humidity Pressure Visibility Wind Dir Wind Speed Gust Speed Precip Events Conditions
12:15 AM 34.7 °F 30.6 °F 23.5 °F 64% 30.29 in 10.0 mi NW 4.6 mph - N/A   Clear
12:35 AM 34.7 °F 29.6 °F 23.2 °F 63% 30.29 in 10.0 mi NW 5.8 mph - N/A   Clear
12:55 AM 33.8 °F 29.6 °F 22.5 °F 63% 30.29 in 10.0 mi NW 4.6 mph - N/A   Clear
1:15 AM 33.3 °F 27.9 °F 22.5 °F 65% 30.29 in 10.0 mi NW 5.8 mph - N/A   Clear
1:35 AM 32.4 °F 26.9 °F 22.1 °F 66% 30.29 in 10.0 mi NW 5.8 mph - N/A   Clear
1:55 AM 32.2 °F 25.8 °F 22.1 °F 66% 30.29 in 10.0 mi NW 6.9 mph - N/A   Clear
2:15 AM 32.4 °F 27.9 °F 22.3 °F 66% 30.30 in 10.0 mi NW 4.6 mph - N/A   Clear
2:35 AM 31.8 °F 27.3 °F 21.9 °F 67% 30.30 in 10.0 mi WNW 4.6 mph - N/A   Clear
2:55 AM 30.9 °F 26.2 °F 21.2 °F 67% 30.30 in 10.0 mi West 4.6 mph - N/A   Clear
3:15 AM 30.2 °F 25.4 °F 20.3 °F 67% 30.30 in 10.0 mi WNW 4.6 mph - N/A   Clear
3:35 AM 30.2 °F 25.4 °F 20.1 °F 66% 30.30 in 10.0 mi West 4.6 mph - N/A   Clear
3:55 AM 29.8 °F 23.9 °F 19.9 °F 67% 30.30 in 10.0 mi West 5.8 mph - N/A   Clear
4:15 AM 29.8 °F 24.9 °F 19.9 °F 67% 30.30 in 10.0 mi West 4.6 mph - N/A   Clear
4:35 AM 29.7 °F 26.1 °F 19.8 °F 67% 30.31 in 10.0 mi SW 3.5 mph - N/A   Clear
4:55 AM 29.3 °F 24.3 °F 19.4 °F 67% 30.31 in 10.0 mi WSW 4.6 mph - N/A   Clear
5:15 AM 29.1 °F 25.4 °F 19.2 °F 67% 30.30 in 10.0 mi West 3.5 mph - N/A   Clear
5:35 AM 29.1 °F 23.0 °F 19.2 °F 67% 30.30 in 10.0 mi WNW 5.8 mph - N/A   Clear
5:55 AM 29.7 °F 24.7 °F 20.5 °F 69% 30.30 in 10.0 mi WSW 4.6 mph - N/A   Clear
6:15 AM 29.3 °F 25.6 °F 20.1 °F 69% 30.31 in 10.0 mi West 3.5 mph - N/A   Clear
6:35 AM 29.3 °F - 20.1 °F 69% 30.31 in 10.0 mi Calm Calm - N/A   Clear
6:55 AM 28.4 °F - 19.4 °F 69% 30.31 in 10.0 mi Calm Calm - N/A   Clear
7:15 AM 28.9 °F 25.2 °F 19.4 °F 68% 30.31 in 10.0 mi WSW 3.5 mph - N/A   Clear
7:35 AM 28.6 °F 24.8 °F 19.4 °F 69% 30.32 in 10.0 mi WNW 3.5 mph - N/A   Clear
7:55 AM 28.9 °F 25.2 °F 19.6 °F 68% 30.33 in 10.0 mi WSW 3.5 mph - N/A   Clear
8:15 AM 31.5 °F 28.1 °F 20.8 °F 65% 30.33 in 10.0 mi WSW 3.5 mph - N/A   Clear
8:35 AM 33.3 °F - 21.7 °F 63% 30.34 in 10.0 mi Calm Calm - N/A   Clear
8:55 AM 35.8 °F - 22.8 °F 59% 30.34 in 10.0 mi Calm Calm - N/A   Clear
9:15 AM 38.7 °F - 23.7 °F 55% 30.33 in 10.0 mi Calm Calm - N/A   Clear
9:35 AM 41.5 °F - 25.0 °F 52% 30.34 in 10.0 mi Calm Calm - N/A   Clear
9:55 AM 43.5 °F - 25.7 °F 50% 30.34 in 10.0 mi Calm Calm - N/A   Clear
10:15 AM 45.5 °F - 25.9 °F 46% 30.33 in 10.0 mi Calm Calm - N/A   Clear
10:35 AM 47.7 °F - 26.4 °F 44% 30.33 in 10.0 mi Calm Calm - N/A   Clear
10:55 AM 50.5 °F - 27.0 °F 40% 30.34 in 10.0 mi Calm Calm - N/A   Clear
11:35 AM 54.1 °F - 28.0 °F 37% 30.32 in 10.0 mi Calm Calm - N/A   Clear
11:55 AM 56.7 °F - 28.8 °F 34% 30.31 in 10.0 mi Calm Calm - N/A   Clear
12:15 PM 59.2 °F - 29.8 °F 33% 30.30 in 10.0 mi Calm Calm - N/A   Clear
12:35 PM 62.1 °F - 30.7 °F 31% 30.28 in 10.0 mi Calm Calm - N/A   Clear
1:15 PM 65.7 °F - 32.5 °F 29% 30.25 in 10.0 mi East 6.9 mph - N/A   Clear
1:35 PM 68.0 °F - 33.8 °F 28% 30.23 in 10.0 mi ENE 5.8 mph - N/A   Clear
2:35 PM 71.8 °F - 35.8 °F 27% 30.20 in 10.0 mi ENE 9.2 mph - N/A   Clear
2:55 PM 72.7 °F - 36.3 °F 27% 30.19 in 10.0 mi East 8.1 mph - N/A   Clear
3:15 PM 72.3 °F - 36.7 °F 27% 30.18 in 10.0 mi East 8.1 mph - N/A   Clear
3:35 PM 74.1 °F - 37.6 °F 27% 30.17 in 10.0 mi East 4.6 mph - N/A   Clear
3:55 PM 74.3 °F - 38.5 °F 27% 30.16 in 10.0 mi East 8.1 mph - N/A   Clear
4:55 PM 74.1 °F - 34.9 °F 24% 30.15 in 10.0 mi East 8.1 mph - N/A   Clear
5:15 PM 72.7 °F - 35.2 °F 25% 30.15 in 10.0 mi East 9.2 mph - N/A   Clear
5:35 PM 70.2 °F - 34.3 °F 27% 30.15 in 10.0 mi East 8.1 mph - N/A   Clear
5:55 PM 65.5 °F - 33.1 °F 30% 30.15 in 10.0 mi East 8.1 mph - N/A   Clear
6:15 PM 62.4 °F - 32.0 °F 32% 30.16 in 10.0 mi East 9.2 mph - N/A   Clear
6:35 PM 62.1 °F - 32.0 °F 32% 30.16 in 10.0 mi East 9.2 mph - N/A   Clear
6:55 PM 60.6 °F - 32.4 °F 35% 30.16 in 10.0 mi ESE 10.4 mph - N/A   Clear
7:35 PM 62.6 °F - 36.5 °F 38% 30.16 in 10.0 mi ESE 13.8 mph - N/A   Clear
7:55 PM 61.7 °F - 37.6 °F 41% 30.16 in 10.0 mi East 12.7 mph - N/A   Clear
8:15 PM 60.6 °F - 37.8 °F 43% 30.16 in 10.0 mi East 11.5 mph - N/A   Clear
8:35 PM 59.5 °F - 37.9 °F 45% 30.16 in 10.0 mi East 10.4 mph - N/A   Clear
8:55 PM 57.9 °F - 37.9 °F 47% 30.17 in 10.0 mi East 10.4 mph - N/A   Clear
9:15 PM 56.8 °F - 37.9 °F 49% 30.17 in 10.0 mi East 8.1 mph - N/A   Clear
9:35 PM 55.6 °F - 37.9 °F 52% 30.17 in 10.0 mi East 8.1 mph - N/A   Clear
9:55 PM 54.5 °F - 37.8 °F 53% 30.17 in 10.0 mi East 6.9 mph - N/A   Clear
10:15 PM 53.6 °F - 37.4 °F 54% 30.16 in 10.0 mi East 8.1 mph - N/A   Clear
10:35 PM 52.5 °F - 37.2 °F 56% 30.17 in 10.0 mi ESE 6.9 mph - N/A   Clear
10:55 PM 51.6 °F - 37.0 °F 58% 30.17 in 10.0 mi East 3.5 mph - N/A   Clear
11:15 PM 51.1 °F - 36.9 °F 58% 30.17 in 10.0 mi ENE 3.5 mph - N/A   Clear
11:35 PM 50.2 °F - 36.5 °F 59% 30.16 in 10.0 mi ESE 3.5 mph - N/A   Clear
11:55 PM 48.6 °F - 35.4 °F 60% 30.16 in 10.0 mi ESE 4.6 mph - N/A   Clear